Regional Weather Roundup
Issued by NWS Mobile, AL

Home | Current Version | Previous Version | Text Only | Print | Product List | Glossary On
Versions: 1 2 3 4 5 6 7 8 9 10 11 12 13 14 15 16 17 18 19 20 21 22 23 24 25 26 27 28 29 30 31 32 33 34 35 36 37 38 39 40 41 42 43 44 45 46 47 48 49 50
000
ASUS44 KMOB 231113
RWRMOB
REGIONAL WEATHER ROUNDUP
NATIONAL WEATHER SERVICE MOBILE AL
600 AM CDT SUN JUL 23 2017

NOTE: "FAIR" INDICATES FEW OR NO CLOUDS BELOW 12,000 FEET WITH NO
      SIGNIFICANT WEATHER AND/OR OBSTRUCTIONS TO VISIBILITY.

  * THESE STATIONS ARE PART OF THE UNIVERSITY OF SOUTH ALABAMA
    MESONET AND ARE NOT UNDER NWS OR FAA QUALITY CONTROL.

ALZ061>064-231200-
COASTAL ALABAMA

CITY           SKY/WX    TMP DP  RH WIND       PRES   REMARKS
MOBILE REG APT PTCLDY    74  72  93 CALM      29.99R FOG
BROOKLEY FIELD CLEAR     78  76  93 W3        29.99R
USA CAMPUS*    NOT AVBL
DOG RIVER*     NOT AVBL


CITY           SKY/WX    TMP DP  RH WIND       PRES   REMARKS
GULF SHORES    PTCLDY    76  76 100 CALM      29.97R

$$

ALZ051>060-231200-
INTERIOR SOUTHWEST AND SOUTH CENTRAL ALABAMA

CITY           SKY/WX    TMP DP  RH WIND       PRES   REMARKS
GREENVILLE     CLEAR     73  70  90 CALM      29.99R
EVERGREEN      PTCLDY    72  71  97 CALM      29.99R
ATMORE*        NOT AVBL
ANDALUSIA/OPP  CLEAR     75  72  90 CALM      29.99R
ANDALUSIA*     NOT AVBL
FLORALA APT    PTCLDY    75  71  87 CALM      30.00R
FLORALA*       NOT AVBL

$$

FLZ001>006-231200-
WESTERN FLORIDA PANHANDLE

CITY           SKY/WX    TMP DP  RH WIND       PRES   REMARKS
PENSACOLA      MOCLDY    81  74  79 CALM      29.98R
NAS PENSACOLA  CLOUDY    78  74  87 CALM      29.97R
MILTON         PTCLDY    74  74 100 CALM      29.99R
WHTNG S FIELD  NOT AVBL


CITY           SKY/WX    TMP DP  RH WIND       PRES   REMARKS
JAY*           NOT AVBL
DUKE FIELD     CLOUDY    77  73  88 S5        29.98R
CRESTVIEW      PTCLDY    73  71  93 CALM      29.99R
VALPARAISO     PTCLDY    76  72  88 CALM      29.97R
DESTIN         MOCLDY    82  71  69 CALM      29.98R

$$

MSZ076-079-231200-
INTERIOR SOUTHEAST MISSISSIPPI

CITY           SKY/WX    TMP DP  RH WIND       PRES   REMARKS
LEAKESVILLE*   NOT AVBL
AGRICOLA*      NOT AVBL

$$

MARINE OBSERVATIONS

STATION/POSITION TIME  TEMP    WIND        PRES    WAVE
                       AIR SEA DIR/SP/G            HT/PER
                 (UTC) (F)     (DEG/KT/KT) (MB)    (FT/S)
PASCAGOULA       1048   77     330/  3/  5 1014.9R
PETIT BOIS ISLND 1048   81     290/  9/ 10 1015.7R
GRAND BAY        0945   78     330/  4     1015.0S
KATRINA CUT      1000   81     320/ 14     1014.2
CEDAR POINT      1030   79     340/  8     1014.9R
E DAUPHIN ISLAND 1000   84     260/  7/  9 1014.2R
MIDDLE BAY LIGHT 1030   81     300/ 10     1014.9R
USCG MOBILE BAY  1048   77 87  300/  3/  4 1015.5R
STATE DOCKS      1048   78 87              1014.8R
MEAHER PARK      1030   80     260/  5     1014.2F
WEEKS BAY        0945   76                   N/A
FORT MORGAN      1048   81     320/  9/ 10   N/A
12 S ORANGE BCH  0950   84 87  260/ 16/ 19 1013.8R   1/ 4
PENSACOLA BAY    1048   80 89              1015.0R
64 S DAUPHIN ISL 1050   81 86  220/ 12/ 16 1015.5R   2/ 4
67 S FORT MORGAN 1030   82     250/ 14     1015.6R

$$

SELECTED LOCATIONS ACROSS THE REGION

CITY           SKY/WX    TMP DP  RH WIND       PRES   REMARKS
NEW ORLEANS    PTCLDY    77  74  90 CALM      29.97S
GULFPORT       CLEAR     74  74 100 CALM      29.97R
PASCAGOULA AP  CLEAR     74  71  91 CALM      29.98R
PASCAGOULA*    NOT AVBL
HATTIESBURG    CLEAR     74  73  97 CALM      29.98R
LAUREL         PTCLDY    72  72 100 CALM      29.99S
MERIDIAN       CLEAR     73  72  96 S3        29.99R
JACKSON        PTCLDY    73  72  96 S5        29.97S
MONTGOMERY     CLEAR     76  71  85 S3        29.98R
TROY           CLEAR     73  73 100 CALM      30.00R
ASHFORD*       NOT AVBL
DOTHAN         CLEAR     75  75 100 S6        30.02R
PANAMA CITY    PTCLDY    76  73  91 CALM      29.97R

$$




USA.gov is the U.S. government's official web portal to all federal, state and local government web resources and services.